SAUDISAT 3

Last updated on Fri Dec 29 2023 00:03:31 GMT+0000 (Coordinated Universal Time)

1 31118U 07012B 23362.43775678 .00000645 00000+0 11572-3 0 9990 2 31118 98.0377 303.3933 0014132 212.4117 147.6222 14.69955293895259
UTC large
Height (km)
Speed (km/s)
/
Latitude / Longitude
Inclination (degrees)
Orbital Period (minutes)
Azimuth
Elevation
Range (km)
Doppler Factor

Next 0 passes for location: London (51.5072 / 0.1276)

Sorry there are no passes over London.